Location: Cargill Incorporated Elevator
(42.7294°N, 93.7333°W)
Time: 17:22:56
(UTC+00:00)

CZ-2D R/B - Pass Details

Date: 19 January 2026
Orbit: 387 x 398 km, 97.4° (Epoch: 17 February)

Event Time Altitude Azimuth Distance (km) Brightness Sun altitude
Rises 12:45:05 0° 15° (NNE) 2,319 6.5 -10.2°
Reaches altitude 10° 12:47:05 10° 18° (NNE) 1,451 5.5 -9.8°
Maximum altitude 12:50:09 65° 101° (E) 438 3.1 -9.3°
Drops below altitude 10° 12:53:11 10° 184° (S) 1,425 5.6 -8.8°
Sets 12:55:08 0° 188° (S) 2,272 6.6 -8.4°
